Other Public Products
Issued by NWS Grand Forks, ND

Home | Current Version | Previous Version | Graphics & Text | Print | Product List | Glossary On
Versions: 1 2 3 4 5 6 7 8 9 10 11 12 13 14 15 16 17 18 19 20 21 22 23 24 25 26 27 28 29 30 31 32 33 34 35 36 37 38 39 40 41 42 43 44 45 46 47 48 49 50
000
FPUS83 KFGF 272331
OPUFGF
PRAIRIE TO PINES WEATHER ROUNDUP
NATIONAL WEATHER SERVICE EASTERN NORTH DAKOTA/GRAND FORKS ND
500 PM CST MON FEB 27 2017

 **SATELLITE DATA USED TO AUGMENT SKY COVER AT AUTOMATED STATIONS**
 *****  WEATHER ACROSS EASTERN NORTH DAKOTA  *****

CITY           SKY/WX    TMP DP  RH WIND       PRES   REMARKS
GRAND FORKS    PTSUNNY   23  14  68 N16       29.88R WCI  10
GRAND FORKS AF CLOUDY    22  18  83 NE14      29.88R WCI   9
GRAND CITY NWS NOT AVBL
BUXTON         NOT AVBL
DEVILS LAKE    LGT SNOW  16  12  86 NE8       29.86R FOG     WCI   5
FARGO          FAIR      32  25  75 N9        29.81R WCI  24
WAHPETON ARPT    N/A     32  28  86 E7        29.77F
$$

 *****  WEATHER ACROSS CENTRAL AND WESTERN NORTH DAKOTA  *****

CITY           SKY/WX    TMP DP  RH WIND       PRES   REMARKS
JAMESTOWN      CLOUDY    26  19  74 NE13      29.79R WCI  15
BISMARCK       CLOUDY    21  15  78 NE15      29.81R WCI   8
MINOT          CLOUDY    13   7  77 N7        29.84R HAZE    WCI   3
MINOT AFB      MOSUNNY   10   5  79 NE6       29.85R WCI   1
GARRISON         N/A     14   8  77 NE8       29.82R WCI   3
WILLISTON      FAIR      17   8  67 E7        29.81R WCI   8
DICKINSON      CLOUDY    16  11  80 NE14      29.72S WCI   2
HETTINGER      CLOUDY    25  18  74 NE10      29.70R WCI  15
$$

 *****  OTHER OBSERVATIONS NORTHEAST NORTH DAKOTA  *****

CITY           SKY/WX    TMP DP  RH WIND       PRES   REMARKS
WALHALLA       NOT AVBL
LANGDON        NOT AVBL
CAVALIER         N/A     14  10  85 NE10      29.93R FOG     WCI   1
GRAFTON        FAIR      16  14  93 N13       29.92S WCI   2
CANDO          NOT AVBL
FORT TOTTEN      N/A     17  15  92 N6        29.95  WCI   9
ROLLA          MOCLDY    12   5  73 N8        29.85R WCI   1
RUGBY            N/A     14  10  85 E9        29.86R WCI   2
 ***** THE ABOVE OBSERVATIONS ARE NON NWS ARE NOT QUALITY
        CONTROLLED AND MAY MIS-REPORT RAIN FOR SNOW...
$$

 *****  OTHER OBSERVATIONS SOUTHEAST NORTH DAKOTA *****

CITY           SKY/WX    TMP DP  RH WIND       PRES   REMARKS
COOPERSTOWN    CLOUDY    25  19  80 NE17      29.83S WCI  11
VALLEY CITY    CLOUDY    27  23  86 NE13      29.82R WCI  16
OAKES          NOT AVBL
GWINNER        MOCLDY    32  30  93 NE14      29.77R WCI  22
SHEYENNE NWR     N/A     31  25  80 E8        29.95S WCI  23
BUFFALO        NOT AVBL
WYNDMERE         N/A     34  30  86 NE6         N/A
 ***** THE ABOVE OBSERVATIONS ARE NON NWS ARE NOT QUALITY
       CONTROLLED AND MAY MIS-REPORT RAIN FOR SNOW...
$$

  *****  WEATHER ACROSS NORTHERN MINNESOTA  *****

CITY           SKY/WX    TMP DP  RH WIND       PRES   REMARKS
FLAG ISLAND    MIX PCPN  21  19  93 SW5       29.87S WCI  15
WARROAD        FAIR      25  18  74 W6        29.88S WCI  18
ROSEAU         CLOUDY    23  18  80 NW6       29.88S WCI  16
HALLOCK        MOCLDY    18  12  79 N10       29.91S WCI   6
THF RVR FALLS    N/A    N/A N/A N/A MISG        N/A
HALSTAD          N/A     28  21  75 N16         N/A  WCI  16
FOSSTON        MOCLDY    25  18  74 N12       29.82F WCI  14
BAUDETTE       FAIR      26  11  52 N9        29.86S WCI  17
WASKISH        MOCLDY    25  14  63 NW3       29.86S
CROOKSTON      FAIR      25  18  74 NE10      29.87S WCI  15
$$
  *****  WEATHER ACROSS CENTRAL AND WEST MINNESOTA  *****

CITY           SKY/WX    TMP DP  RH WIND       PRES   REMARKS
BEMIDJI        FAIR      30  18  60 E3        29.81S
PARK RAPIDS    CLOUDY    35  21  56 E8        29.78F
WADENA         FAIR      34  25  69 E5        29.79R
DETROIT LAKES  FAIR      32  27  80 SE6       29.80R
MOORHEAD       FAIR      34  25  69 NE6       29.81S
FERGUS FALLS   FAIR      36  27  69 E3        29.81S
ELBOW LAKE     FAIR      35  27  74 SE9       29.76F
MORRIS MN      FAIR      39  30  70 SE10      29.74F
STAPLES        FAIR      36  23  60 CALM      29.80R
WHEATON        FAIR      37  30  75 E7        29.76S
$$
  *****  WEATHER ELSEWHERE ACROSS MINNESOTA  *****

CITY           SKY/WX    TMP DP  RH WIND       PRES   REMARKS
DULUTH         MOCLDY    29  23  78 E7        29.86F WCI  22
INTRNTL FALLS  MOCLDY    29   7  39 CALM      29.86F
ELY            FAIR      30  18  59 CALM      29.86F
CLOQUET        CLOUDY    30  21  69 E6        29.86S WCI  24
BRAINERD       CLOUDY    36  25  64 E6        29.81F
HIBBING        MOCLDY    32  20  61 SE5       29.85S
ALEXANDRIA     FAIR      38  24  57 SE7       29.78S
SAINT CLOUD    CLOUDY    40  25  55 S10       29.83F
MINNEAPOLIS    MOCLDY    42  23  46 SE13      29.89F
$$

  *****  WEATHER ACROSS SOUTH DAKOTA  *****

CITY           SKY/WX    TMP DP  RH WIND       PRES   REMARKS
SIOUX FALLS    FAIR      43  29  57 S17       29.76F
BROOKINGS      FAIR      43  23  45 S18       29.72F
WATERTOWN      PTSUNNY   43  26  51 S15       29.70S
HURON          CLOUDY    48  28  46 S12       29.68S
SISSETON         N/A     39  31  72 E8        29.71F
ABERDEEN       PTSUNNY   40  19  43 N8        29.71S
MITCHELL       FAIR      46  27  47 S12       29.72S
PIERRE         CLOUDY    44  18  35 N15       29.63S
MOBRIDGE       FAIR      37  25  61 N12       29.67R
RAPID CITY     CLOUDY    38  14  37 N13       29.60R
$$

  *****  SOME WEATHER IN NEARBY STATES *****

CITY           SKY/WX    TMP DP  RH WIND       PRES   REMARKS
GLASGOW MT     FAIR      19  10  68 SE12      29.74S WCI   7
GREAT FALLS MT FAIR      21  13  71 E7        29.54R WCI  12
CHEYENNE WY    FAIR      39  20  46 SW12      29.53R
SCOTTSBLUFF NE FAIR      37  24  59 SE6       29.52F
OMAHA NE       PTSUNNY   54  23  30 SE15      29.77S
DES MOINES IA  CLOUDY    54  24  31 SE13      29.86F
DAVENPORT IA   FAIR      52  33  48 S8        29.99F
CHICAGO IL     CLOUDY    51  32  48 S6        30.06F
EAU CLAIRE WI  MOCLDY    40  21  46 S9        29.94F
LA CROSSE WI   FAIR      47  31  53 S9        29.97S
$$

  *****  SOME NATIONAL WEATHER *****

CITY           SKY/WX    TMP DP  RH WIND       PRES   REMARKS
LA GUARDIA NY  MOCLDY    52  31  44 S9        30.37R
RALEIGH NC     CLOUDY    62  25  24 SE7       30.33F
ATLANTA GA     MOCLDY    51  48  89 SE8       30.23F
NEW ORLEANS LA PTSUNNY   75  67  76 S12       30.08R
OKLAHOMA CITY  FAIR      72  55  55 S20G26    29.78F
ALBUQUERQUE NM PTSUNNY   58  11  15 SW14G20   29.83S
SALT LAKE CITY LGT SNOW  30  27  88 W13       29.77R FOG     WCI  20
LOS ANGELES CA CLOUDY    56  47  71 SW6       29.82F
BOISE ID       LGT SNOW  33  28  81 VRB3      29.77R
SEATTLE WA     CLOUDY    39  36  89 S17G26    29.67R
$$

*** WEATHER ACROSS MANITOBA...SASKATCHEWAN AND ONTARIO ***
                ***ONTARIO***

CITY           SKY/WX    TMP DP  RH WIND       PRES   REMARKS
GERALDTON      PTCLDY    23   7  50 SW8       29.92F WCI  14
THUNDER BAY    PTCLDY    28  19  69 S10       29.95S WCI  19
SIOUX LOOKOUT  CLOUDY    25   5  42 SW9G17    29.83S WCI  15
TORONTO        PTCLDY    43  21  42 W9        30.23R
BIG TROUT LK   FLURRIES   0  -4  85 VRB2      29.88
PICKLE LAKE    FLURRIES  23   7  50 SW14G22   29.78S WCI  11
DRYDEN         CLOUDY    25   7  46 W18G24    29.83S WCI  11
KENORA         MOCLDY    23  12  63 SW9       29.84R WCI  13
$$
                *** MANITOBA***

CITY           SKY/WX    TMP DP  RH WIND       PRES   REMARKS
BRANDON        PTSUNNY    9   0  66 NW7       29.90R WCI  -3
DAUPHIN        SUNNY     12   1  62 W8        29.90S WCI   1
ISLAND LAKE    CLEAR      0 -13  55 W9        29.91R WCI -16
PILOT MOUND      N/A     14   7  73 N3          N/A
THE PAS        PTCLDY     7  -9  47 VRB6      29.86S WCI  -3
THOMPSON       PTCLDY    -6 -20  49 NW7       29.90R WCI -20
WINNIPEG       MOCLDY    14   7  73 N2        29.95R
LYNN LAKE      CLEAR     -8 -18  59 NW6       29.84R WCI -21
CHURCHILL      CRYSTALS -22 -29  69 NW13      29.90R WCI -46
GILLAM         PTCLDY   -13 -26  53 W7        29.90R WCI -29
$$
                ***SASKATCHEWAN***

CITY           SKY/WX    TMP DP  RH WIND       PRES   REMARKS
ESTEVAN        PTSUNNY    9   1  72 NE7       29.82F WCI  -3
KINDERSLEY     MOSUNNY   18   1  49 SW5       29.69S WCI  11
LLOYDMINSTER   MOSUNNY   19   9  63 W12       29.66R WCI   7
PRINCE ALBERT  MOSUNNY   16   3  57 SW14      29.75S WCI   1
REGINA         MOSUNNY   12  -2  52 SE7       29.80F WCI   2
YORKTON        SUNNY     10  -2  56 SW6       29.84S WC



USA.gov is the U.S. government's official web portal to all federal, state and local government web resources and services.